Weather History for Traverse City, MI

Change the Weather History Date:

Tuesday, December 3, 2013

  Actual Average Record
Temperature  
Mean Temperature 30 °F 31 °F  
Max Temperature 32 °F 36 °F 64 °F (1962)
Min Temperature 28 °F 25 °F 0 °F (1976)
Degree Days  
Heating Degree Days 35 34  
Month to date heating degree days 95 102  
Since 1 July heating degree days 1586 1721  
Moisture  
Dew Point 25 °F    
Average Humidity 81    
Maximum Humidity 92    
Minimum Humidity 69    
Precipitation  
Precipitation 0.23 in 0.08 in 1.22 in (1970)
Month to date precipitation 0.23 0.25  
Year to date precipitation 35.38 30.81  
Snow  
Snow 0.00 in - - ()
Snow Depth 3.00 in    
Sea Level Pressure  
Sea Level Pressure 29.89 in    
Wind  
Wind Speed 8 mph (East)    
Max Wind Speed 16 mph    
Max Gust Speed 21 mph    
Visibility 6 miles    
Events Snow    
T = Trace of Precipitation, MM = Missing Value Source: NWS Daily Summary

Daily Weather History Graph

Daily Weather History Graph

Search for Another Location

Airport:

Trip Planner

Search our weather history database for the weather conditions in past years. The results will help you decide how hot, cold, wet, or windy it might be!

Date:

Astronomy

Dec. 03, 2013 Rise Set
Actual Time 8:01 AM EST 5:02 PM EST
Civil Twilight 7:28 AM EST 5:35 PM EST
Nautical Twilight 6:52 AM EST 6:12 PM EST
Astronomical Twilight 6:17 AM EST 6:47 PM EST
Moon 8:29 AM EST (12/3) 6:06 PM EST (12/3)
Length of Visible Light 10h 06m
Length of Day
9h 00m
New Moon, 1% of the Moon is Illuminated
Dec 3
New Moon
Dec 9
First Quarter
Dec 17
Full
Dec 25
Last Quarter
Jan 1
New

Hourly Weather History & Observations

Time (EST) Temp. Windchill Dew Point Humidity Pressure Visibility Wind Dir Wind Speed Gust Speed Precip Events Conditions
12:53 AM 30.9 °F - 23.0 °F 72% 29.92 in 10.0 mi Calm Calm - N/A   Overcast
1:53 AM 30.9 °F 25.2 °F 23.0 °F 72% 29.91 in 10.0 mi Variable 5.8 mph - N/A   Overcast
2:53 AM 30.9 °F 22.8 °F 21.9 °F 69% 29.91 in 10.0 mi ESE 9.2 mph - N/A   Clear
3:53 AM 30.0 °F 24.1 °F 21.9 °F 72% 29.91 in 10.0 mi SE 5.8 mph - N/A   Clear
4:53 AM 30.0 °F 23.2 °F 21.9 °F 72% 29.91 in 10.0 mi SE 6.9 mph - N/A   Mostly Cloudy
5:53 AM 28.9 °F 20.4 °F 21.9 °F 75% 29.91 in 10.0 mi ESE 9.2 mph - N/A   Overcast
6:53 AM 28.9 °F 20.4 °F 21.0 °F 72% 29.89 in 10.0 mi ESE 9.2 mph - N/A   Overcast
7:53 AM 28.9 °F 20.4 °F 21.0 °F 72% 29.91 in 10.0 mi East 9.2 mph - N/A   Overcast
8:53 AM 28.9 °F 21.1 °F 21.0 °F 72% 29.93 in 10.0 mi East 8.1 mph - N/A   Overcast
9:53 AM 28.9 °F 21.1 °F 21.0 °F 72% 29.94 in 5.0 mi ESE 8.1 mph - 0.00 in Snow Light Snow
10:10 AM 28.9 °F 22.8 °F 23.0 °F 78% 29.92 in 2.0 mi ESE 5.8 mph - 0.00 in Snow Light Snow
10:34 AM 28.9 °F 21.9 °F 23.0 °F 78% 29.93 in 4.0 mi ESE 6.9 mph - 0.00 in Snow Light Snow
10:53 AM 28.9 °F 19.2 °F 23.0 °F 78% 29.94 in 4.0 mi East 11.5 mph - 0.00 in Snow Light Snow
11:53 AM 28.9 °F 19.2 °F 24.1 °F 82% 29.93 in 6.0 mi ESE 11.5 mph - 0.00 in Snow Light Snow
12:53 PM 30.0 °F 22.4 °F 24.1 °F 79% 29.91 in 9.0 mi ENE 8.1 mph - 0.00 in Snow Light Snow
1:31 PM 30.0 °F 23.2 °F 25.0 °F 82% 29.88 in 2.0 mi East 6.9 mph - 0.00 in Snow Light Snow
1:53 PM 30.0 °F 23.2 °F 25.0 °F 82% 29.90 in 6.0 mi ENE 6.9 mph - 0.01 in Snow Light Snow
2:53 PM 30.9 °F 24.3 °F 25.0 °F 79% 29.88 in 8.0 mi ENE 6.9 mph - 0.00 in Snow Light Snow
3:53 PM 30.9 °F 22.8 °F 25.0 °F 79% 29.88 in 8.0 mi East 9.2 mph - 0.00 in Snow Light Snow
4:11 PM 30.9 °F 23.5 °F 25.0 °F 79% 29.85 in 2.0 mi East 8.1 mph - 0.00 in Snow Light Snow
4:22 PM 30.9 °F 22.2 °F 25.0 °F 79% 29.86 in 3.0 mi East 10.4 mph - 0.00 in Snow Light Snow
4:53 PM 30.9 °F 22.8 °F 25.0 °F 79% 29.88 in 8.0 mi East 9.2 mph - 0.00 in Snow Light Snow
5:53 PM 30.9 °F 23.5 °F 25.0 °F 79% 29.88 in 10.0 mi East 8.1 mph 17.3 mph 0.00 in Snow Light Snow
6:46 PM 30.9 °F 20.7 °F 25.0 °F 79% 29.86 in 10.0 mi East 13.8 mph 21.9 mph 0.00 in Snow Light Snow
6:53 PM 30.9 °F 23.5 °F 25.0 °F 79% 29.89 in 10.0 mi East 8.1 mph 21.9 mph 0.00 in Snow Light Snow
7:53 PM 30.9 °F 25.2 °F 26.1 °F 82% 29.89 in 6.0 mi ENE 5.8 mph - 0.01 in Snow Light Snow
8:35 PM 30.0 °F 24.1 °F 27.0 °F 88% 29.85 in 2.0 mi ENE 5.8 mph - 0.01 in Snow Light Snow
8:41 PM 30.0 °F 22.4 °F 27.0 °F 88% 29.85 in 1.5 mi ENE 8.1 mph - 0.02 in Snow Light Snow
8:53 PM 30.0 °F 23.2 °F 28.0 °F 92% 29.88 in 1.0 mi ENE 6.9 mph - 0.03 in Snow Light Snow
9:26 PM 30.0 °F 23.2 °F 28.0 °F 92% 29.85 in 0.8 mi ENE 6.9 mph - 0.04 in Snow Light Snow
9:53 PM 30.0 °F 23.2 °F 28.0 °F 92% 29.88 in 0.8 mi ENE 6.9 mph - 0.10 in Snow Light Snow
10:00 PM 30.0 °F 25.2 °F 28.0 °F 92% 29.85 in 1.8 mi ENE 4.6 mph - 0.00 in Snow Light Snow
10:53 PM 30.9 °F 26.2 °F 28.9 °F 92% 29.88 in 1.5 mi ENE 4.6 mph - 0.04 in Snow Light Snow
11:03 PM 30.9 °F 26.2 °F 28.9 °F 92% 29.85 in 3.0 mi ENE 4.6 mph - 0.00 in Snow Light Snow
11:17 PM 30.9 °F 25.2 °F 28.9 °F 92% 29.85 in 1.8 mi ENE 5.8 mph - 0.02 in Snow Light Snow
11:35 PM 30.9 °F 26.2 °F 28.9 °F 92% 29.85 in 2.0 mi East 4.6 mph - 0.04 in Snow Light Snow
11:48 PM 30.2 °F 24.3 °F 28.4 °F 93% 29.85 in 5.0 mi ENE 5.8 mph - 0.04 in Snow Light Snow
11:53 PM 30.9 °F 24.3 °F 28.9 °F 92% 29.87 in 5.0 mi ENE 6.9 mph - 0.04 in Snow Light Snow